Location: Ajisawe
(8.4333°N, 4.3833°E)
Time: 01:36:09
(UTC+00:00)

X-37B - Pass Details

Date: 09 March 2021
Orbit: 380 x 394 km, 45.0° (Epoch: 07 April)

Event Time Altitude Azimuth Distance (km) Brightness Sun altitude
Exits shadow 04:45:55 52° 248° (WSW) 487 0.7 -17.2°
Maximum altitude 04:46:09 54° 228° (SW) 476 0.7 -17.2°
Drops below altitude 10° 04:49:16 10° 149° (SSE) 1,406 3.8 -16.4°
Sets 04:51:21 0° 144° (SE) 2,257 5.0 -15.9°
